Temperature
13 14 14 15 13 12 13 14 16 17 17 18 17 17 16 15 16 16 15 15 16 16 16 16 16 16 17 17 17 17 17 17 16 16 16 16 16 16 16 16 16 16 16 16 16 15 15 15 15
13 14 14 14 12 12 13 14 16 17 18 18 17 16 15 14 14 14 14 15 15 16 16 16 16 16 16 16 16 16 16 16 16 16 16 16 16 16 16 16 16 16 16 16 16 15 15 15 15
13 13 14 11 11 12 14 15 15 16 18 17 16 15 14 14 14 14 14 15 15 15 16 16 16 16 16 16 16 16 16 16 16 16 16 16 16 16 16 16 16 16 16 15 15 15 15 15 15
13 13 13 11 12 13 14 15 15 16 17 16 15 13 13 14 14 14 14 15 15 15 15 16 16 16 16 16 16 16 16 16 16 16 16 16 16 15 15 15 15 15 15 15 15 15 15 15 15
12 13 11 11 12 13 13 15 16 15 15 15 14 12 13 13 14 14 14 15 15 15 15 15 15 16 16 16 16 16 16 16 16 15 15 15 15 15 15 15 15 15 15 15 15 15 15 15 15
12 11 10 11 12 13 14 15 16 15 15 14 13 12 12 13 14 14 14 14 15 15 15 15 15 15 15 15 15 15 15 15 15 15 15 15 15 15 15 15 15 15 15 15 15 15 15 15 15
11 9 10 11 12 13 14 15 15 14 14 14 14 12 11 13 13 14 14 14 14 15 15 15 15 15 15 15 15 15 15 15 15 15 15 15 15 15 15 15 15 15 15 14 14 15 15 15 15
12 10 11 11 12 13 15 15 15 15 13 14 14 12 11 12 13 13 14 14 14 14 14 14 15 15 15 15 15 15 15 15 15 15 15 15 15 15 14 14 14 14 14 14 14 14 14 14 14
12 9 10 11 12 13 14 14 14 14 14 13 13 13 13 13 13 13 13 13 14 14 14 14 14 14 14 14 14 14 14 14 14 14 14 14 14 14 14 14 14 14 14 14 14 14 14 14 14
11 9 11 12 12 12 13 13 13 13 12 11 12 12 12 12 13 13 13 13 13 14 14 14 14 14 14 14 14 14 14 14 14 14 14 14 14 14 14 14 14 14 14 14 14 14 14 14 14
10 10 11 11 12 13 13 13 13 13 11 11 12 12 12 12 12 12 13 13 13 13 13 14 14 14 14 14 14 14 14 14 14 14 14 14 14 14 14 14 14 14 14 14 13 13 14 14 13
10 10 11 11 12 13 13 13 12 12 13 13 13 12 12 12 12 12 12 13 13 13 13 13 13 13 13 13 13 13 13 13 14 14 14 14 14 14 14 14 13 13 13 13 13 13 13 13 13
10 10 11 11 12 12 12 11 11 11 12 12 12 12 12 12 12 12 12 12 13 13 13 13 13 13 13 13 13 13 13 13 13 13 13 13 13 13 13 13 13 13 13 13 13 13 13 13 13
10 10 11 11 12 12 11 11 11 10 11 11 11 11 11 11 11 11 12 12 12 12 12 12 13 13 13 13 13 13 13 13 12 12 13 13 13 13 13 13 13 12 12 12 12 12 13 13 12
10 10 10 11 11 11 11 11 10 11 11 11 11 11 11 11 11 11 11 12 12 12 12 12 12 12 12 12 12 12 12 12 12 12 12 12 12 12 12 12 12 12 12 12 12 12 12 12 12
10 9 9 10 11 11 11 10 10 11 11 10 10 11 11 11 11 11 11 11 11 11 12 12 12 12 12 12 12 12 12 12 12 12 12 11 11 11 11 11 11 12 12 11 12 12 12 12 12
9 8 9 10 11 10 10 10 10 11 11 10 10 10 10 10 10 11 11 11 11 11 11 11 11 11 12 12 12 11 11 11 11 11 11 11 11 11 11 11 11 11 11 11 11 11 11 11 11
8 9 9 9 10 10 10 9 9 10 10 10 10 10 10 10 10 11 11 11 11 11 11 11 11 11 11 11 11 11 11 11 11 10 10 10 10 10 10 10 10 10 10 11 11 11 11 11 11
9 9 9 10 10 10 9 9 9 10 10 10 10 10 10 10 11 10 11 11 11 11 11 11 11 11 11 11 11 11 11 10 10 10 10 10 10 10 10 10 10 10 10 10 10 10 10 10 10
9 9 9 9 10 10 9 9 9 9 9 10 10 10 10 10 10 10 10 10 10 11 10 10 10 10 10 10 10 10 10 10 10 10 10 9 9 9 9 9 9 10 9 10 10 10 10 10 10
9 9 9 9 9 9 9 9 10 10 10 10 10 11 11 10 10 10 10 10 10 10 10 10 10 10 10 10 10 10 10 10 10 9 9 9 9 9 9 9 9 9 9 9 9 9 9 9 9
9 9 9 9 8 8 9 8 9 9 9 9 9 10 10 10 10 10 10 10 10 10 10 10 10 10 10 9 9 9 9 9 9 9 9 9 9 9 9 8 8 8 8 8 8 8 8 8 8
9 9 9 9 8 8 8 7 8 9 9 9 9 10 10 10 10 10 10 10 10 10 10 9 9 9 9 9 9 9 9 9 9 9 9 9 8 8 8 8 8 8 8 8 8 8 8 8 8
9 8 8 6 6 8 8 7 8 7 9 9 9 10 10 10 10 10 10 10 10 9 9 9 9 9 9 9 9 9 9 9 8 8 8 8 8 8 8 8 8 8 8 8 8 8 8 7 7
8 7 7 7 7 7 8 8 7 8 9 9 9 10 10 10 10 10 10 9 9 9 9 9 9 9 8 8 8 8 8 8 8 8 8 8 8 8 7 7 7 7 7 7 7 7 7 7 7
8 8 7 8 8 7 7 7 8 9 9 10 10 10 10 10 10 10 10 9 9 9 9 8 8 8 8 8 8 8 8 8 8 8 8 8 7 7 7 7 7 7 7 7 7 6 6 6 6
8 7 7 6 7 7 7 7 8 9 9 9 9 9 10 10 10 10 9 9 9 9 9 8 8 8 8 8 8 8 8 7 7 7 7 7 7 7 7 7 6 6 6 6 6 6 6 6 6
8 7 6 6 8 8 8 8 7 8 8 8 8 9 9 9 9 9 9 9 9 8 8 8 8 8 8 7 7 7 7 7 7 7 7 7 7 6 6 6 6 6 6 6 6 5 5 5 5
8 8 6 5 6 7 8 8 8 8 8 7 8 9 9 9 9 9 9 9 8 8 8 8 8 8 7 7 7 7 7 7 7 6 6 6 6 6 6 6 6 5 5 5 5 5 5 5 5
8 8 6 6 6 6 6 7 8 8 8 8 9 9 9 9 9 9 9 8 8 8 8 7 7 7 7 7 7 7 7 6 6 6 6 6 5 5 5 5 5 5 5 5 5 4 4 4 4
Wind_Speed
6 5 3 3 4 2 5 5 4 3 2 1 3 6 8 5 4 5 3 6 10 9 9 10 11 11 11 11 10 10 9 9 8 7 7 6 6 5 5 5 4 4 4 4 4 4 4 4 3
3 2 3 4 4 4 6 5 5 5 5 4 4 5 6 5 3 6 4 8 11 10 10 10 11 11 11 11 10 10 9 8 8 7 6 5 5 4 4 4 4 4 3 3 3 3 3 3 2
1 1 3 4 4 7 6 5 6 1 1 3 4 5 5 5 3 3 5 10 11 10 10 10 11 11 10 10 10 9 8 8 7 6 5 5 4 4 4 3 3 3 3 3 2 2 2 2 2
2 2 3 3 6 5 5 5 5 3 3 5 5 6 4 4 1 4 9 11 10 8 9 10 11 10 10 9 9 8 8 7 6 6 5 4 3 3 3 3 3 3 2 2 2 2 2 2 3
3 3 2 3 5 3 4 4 3 3 2 3 5 6 4 5 5 8 10 10 11 7 9 10 11 10 9 9 8 8 7 7 6 5 5 4 3 3 3 3 3 2 2 2 2 3 3 4 4
2 3 4 5 5 2 3 3 2 3 3 4 5 5 3 3 6 6 8 9 9 9 9 10 10 10 9 9 8 7 6 6 5 5 5 4 4 4 4 3 3 2 2 2 3 3 4 5 5
3 4 5 6 5 4 5 2 4 5 4 3 4 6 4 1 3 6 8 9 9 9 9 9 9 9 8 8 8 8 7 6 6 5 5 5 5 5 5 4 4 3 3 3 3 4 5 6 6
3 3 3 4 5 5 4 1 2 5 4 2 3 7 6 4 4 7 9 9 8 8 7 7 8 8 7 7 7 7 7 6 6 5 5 5 5 5 5 5 5 4 4 4 4 5 5 6 7
2 2 3 5 6 4 2 3 2 3 6 4 4 3 6 8 7 9 8 7 7 7 5 6 6 7 7 6 7 7 7 7 7 6 6 6 6 5 5 6 6 5 5 5 5 5 6 6 7
3 3 4 3 4 3 2 3 4 5 5 4 5 6 8 8 9 9 8 6 5 5 4 4 5 6 6 6 7 7 7 7 7 7 6 6 6 5 5 6 6 6 6 6 7 7 7 6 6
3 3 2 3 3 2 2 3 2 8 3 5 8 10 8 8 8 8 6 6 4 4 4 4 4 5 6 5 6 6 6 7 7 7 6 6 6 6 6 5 6 6 6 6 7 7 7 6 6
2 1 1 3 3 1 3 3 4 3 3 5 9 11 9 9 7 7 6 5 4 4 4 3 4 4 5 6 5 5 5 5 6 7 7 6 5 5 5 4 5 5 5 5 5 5 6 6 6
1 0 2 3 5 5 7 6 5 3 5 9 11 10 10 9 7 5 6 6 5 4 3 3 3 4 4 5 4 5 4 5 6 7 8 7 5 3 4 4 5 5 5 4 4 4 4 5 5
2 2 3 4 5 4 8 4 4 3 6 10 10 9 8 8 7 6 5 5 4 4 3 2 3 3 4 4 3 3 4 5 7 7 8 8 6 5 4 4 4 5 5 5 4 4 4 3 4
3 4 5 5 3 2 6 5 1 4 8 9 8 7 7 7 7 6 5 5 4 3 3 2 2 3 4 3 3 4 4 5 6 6 8 9 8 6 5 3 3 5 6 6 4 5 4 3 4
3 4 3 3 2 2 5 2 1 4 9 7 6 6 6 5 5 5 5 5 4 4 3 3 3 3 3 3 3 3 5 5 5 6 7 8 8 7 6 3 3 7 6 5 3 3 3 4 4
4 3 1 1 2 2 4 3 2 4 8 7 5 5 5 4 3 4 5 5 4 4 3 3 3 2 2 2 3 4 5 5 5 6 6 7 7 7 6 4 5 6 5 4 3 3 2 3 5
3 2 2 1 0 4 3 2 2 4 6 6 5 5 5 5 5 5 5 5 5 4 3 3 2 2 2 2 2 3 3 3 5 5 5 6 6 7 6 5 6 6 3 3 4 4 3 2 4
4 4 3 0 0 2 2 3 4 4 5 6 6 6 6 6 5 5 5 5 4 3 3 2 2 1 2 2 1 1 1 2 2 3 5 6 6 6 6 4 4 4 3 4 4 3 3 3 3
5 6 3 2 2 2 1 3 4 4 6 7 8 8 8 6 4 4 4 4 4 3 2 2 2 1 0 1 1 1 1 0 0 2 3 5 6 6 5 4 3 3 3 4 4 4 2 3 3
4 4 3 2 2 3 2 4 3 3 3 4 6 6 6 8 8 7 6 5 4 3 4 3 2 1 1 0 1 1 2 2 2 2 2 2 4 4 5 4 3 3 2 2 3 3 3 2 3
2 1 2 3 3 1 2 2 5 3 3 4 6 6 7 6 7 6 6 5 5 5 4 3 2 2 1 1 1 2 2 1 2 1 1 2 3 3 4 4 3 3 2 2 2 3 2 1 2
1 1 3 3 3 2 2 2 6 2 4 6 6 7 7 7 7 7 7 7 6 4 3 3 2 2 1 1 2 2 2 2 1 1 1 1 2 2 3 3 3 2 2 2 2 2 2 1 1
2 5 6 5 4 1 2 3 5 4 6 4 4 5 6 6 6 6 5 4 4 3 3 2 2 2 2 2 2 3 3 3 2 2 1 1 1 1 2 2 2 2 1 1 1 2 2 2 2
6 5 4 5 3 4 2 2 7 6 4 5 5 6 5 5 5 5 5 4 4 5 4 3 3 3 3 3 3 3 4 4 4 4 3 2 1 1 2 0 1 1 1 1 1 2 2 2 2
1 4 5 4 4 4 3 4 6 4 2 1 2 3 4 4 4 5 6 6 6 6 5 4 4 4 3 3 4 3 3 3 3 3 3 3 3 3 2 1 1 1 1 1 1 1 1 1 1
2 2 4 5 1 1 4 5 5 1 2 2 2 2 3 4 4 5 5 5 5 5 5 5 5 5 4 4 4 4 3 3 4 3 3 3 3 2 2 2 1 1 1 0 0 0 1 1 1
2 4 4 4 3 2 5 4 4 5 4 3 2 3 4 3 3 4 4 4 4 5 5 4 5 6 5 5 4 4 4 4 4 3 4 4 3 3 2 2 2 2 1 1 0 0 0 0 0
1 2 3 3 3 4 3 6 5 6 5 5 5 4 4 4 4 4 4 4 4 3 4 4 4 4 4 4 4 4 4 4 4 4 4 4 3 3 4 3 3 3 2 2 1 1 1 1 1
3 3 5 3 2 3 3 7 5 4 4 4 4 4 4 4 3 3 3 2 3 3 3 4 4 4 5 5 4 4 4 4 4 5 5 4 4 4 4 4 4 4 3 3 3 3 2 2 2
Wind_Direction
311 347 60 59 73 93 223 234 209 165 147 142 84 100 112 107 135 150 152 135 126 127 121 117 119 116 113 109 106 104 102 100 97 95 92 89 87 82 78 80 74 71 70 70 70 66 59 60 69
356 26 66 73 128 186 238 225 206 198 172 145 77 78 85 83 77 106 127 130 125 122 118 116 114 115 111 107 104 104 100 97 95 93 90 84 80 76 75 74 66 60 58 57 57 54 47 43 44
11 96 108 108 166 192 208 206 194 195 124 115 77 51 81 99 95 116 134 129 118 115 115 115 113 112 112 108 105 103 100 97 93 89 85 80 76 73 74 69 63 54 48 42 41 38 27 12 359
79 75 74 132 211 225 209 202 181 151 66 59 95 73 55 23 53 123 127 122 117 110 112 115 111 107 107 109 109 106 102 97 91 88 84 75 68 70 70 62 58 52 46 39 24 4 334 321 316
78 109 128 198 226 251 241 223 168 130 92 77 95 93 58 7 53 99 119 120 119 110 102 108 109 107 104 101 106 107 103 98 91 84 79 72 61 52 56 59 51 42 27 8 350 332 323 313 306
100 105 144 200 208 221 251 225 130 103 102 93 92 97 98 32 67 86 106 113 116 110 94 96 101 100 100 100 95 97 100 97 89 79 70 62 57 53 55 42 29 11 352 338 328 321 316 314 308
137 134 178 187 182 205 227 201 136 129 112 117 117 107 124 82 84 98 95 95 95 94 90 81 84 88 91 94 91 84 87 87 81 72 62 54 47 43 44 34 20 7 353 335 326 322 319 316 315
148 136 177 190 175 203 202 110 100 119 119 78 86 130 157 178 132 96 86 81 83 79 78 75 71 72 75 83 83 78 74 73 70 64 57 49 42 36 34 27 16 9 359 344 331 322 320 316 313
104 91 193 201 185 201 185 110 61 69 94 54 49 118 147 138 118 96 85 73 70 68 63 66 65 63 66 79 74 71 70 65 65 60 56 50 36 29 27 21 19 12 2 348 337 328 323 319 313
107 158 219 228 214 192 164 131 135 89 71 69 64 77 111 116 112 109 108 102 88 73 62 62 64 60 60 67 64 66 66 61 57 54 51 44 38 33 30 25 22 12 3 354 344 338 328 319 312
140 182 247 295 267 181 124 113 104 115 114 166 147 138 125 112 109 114 116 116 114 97 72 54 62 59 56 52 60 60 58 55 49 45 46 44 38 29 24 21 13 7 6 0 351 348 337 321 311
123 323 294 313 327 55 116 111 74 87 173 162 142 137 124 121 124 127 125 124 114 97 83 56 56 57 56 57 54 60 56 49 40 36 39 44 37 28 20 16 4 4 358 353 349 340 332 326 318
118 78 10 15 40 63 80 77 91 66 104 116 119 120 124 126 125 122 122 121 115 102 85 60 59 58 59 56 49 56 54 55 49 44 39 42 41 27 19 8 4 358 356 351 340 336 330 326 322
138 80 29 16 35 35 81 61 76 126 121 117 122 127 132 132 131 122 122 119 122 114 96 61 62 62 65 64 55 53 51 55 54 45 37 40 42 34 24 12 6 360 352 343 334 327 317 311 316
93 65 29 11 33 46 81 46 84 156 131 125 132 135 134 135 134 137 144 136 137 130 106 74 87 68 64 66 59 57 55 63 55 44 41 40 40 39 32 20 4 355 351 348 346 342 333 328 328
66 62 58 343 48 44 93 142 206 151 132 135 143 142 140 142 145 145 145 140 141 129 106 73 70 72 66 68 62 60 62 65 56 48 43 37 37 41 38 24 3 359 2 359 345 347 337 333 329
55 90 111 340 12 77 109 181 223 153 143 152 162 161 158 156 158 159 157 148 141 135 120 96 75 73 61 59 64 63 65 64 58 51 43 36 34 37 38 27 8 7 9 3 350 349 337 325 328
165 139 128 166 343 93 123 199 208 179 163 174 179 178 177 181 191 179 162 147 141 136 121 109 83 58 57 51 50 48 51 45 50 49 43 38 34 35 38 30 16 15 12 1 353 339 337 316 319
142 121 113 231 150 101 160 209 235 206 189 193 195 194 193 199 199 175 161 150 138 130 122 118 94 46 60 59 61 51 26 10 27 40 47 41 35 33 39 28 19 19 16 0 350 343 341 342 343
99 103 91 43 35 91 148 267 253 220 208 201 200 203 200 198 187 179 170 160 157 157 164 166 154 132 89 139 183 187 187 216 54 28 41 42 37 30 33 28 18 16 14 12 7 4 349 344 3
58 126 151 143 27 47 68 322 277 254 216 203 202 200 195 192 191 188 183 183 176 184 193 193 190 185 213 197 113 78 62 31 15 2 359 18 34 33 34 29 27 19 22 6 355 4 10 342 332
69 343 115 109 90 322 102 253 281 261 242 215 212 200 198 193 184 184 182 185 193 205 197 192 192 196 224 189 161 161 175 210 232 251 307 348 17 22 25 28 27 24 18 8 355 15 3 358 338
155 40 62 74 95 46 29 143 286 295 244 239 223 210 204 197 186 186 189 193 198 198 192 197 191 203 217 198 192 183 196 211 227 239 308 331 348 5 15 23 24 23 15 10 16 13 18 22 357
82 50 47 43 64 12 249 165 276 250 231 231 214 206 198 189 182 186 192 185 193 192 194 196 193 215 218 208 205 201 209 214 219 237 244 267 288 328 350 15 24 16 10 5 9 18 32 32 34
57 75 46 15 11 256 282 192 253 265 252 210 200 201 195 183 177 183 186 190 198 200 204 202 203 226 228 220 223 220 216 211 217 227 224 230 248 265 281 333 2 346 341 357 22 43 33 30 47
38 122 146 178 214 277 317 238 262 299 319 136 160 168 171 182 192 201 203 202 205 207 205 203 212 226 230 229 238 236 223 214 226 226 217 221 229 237 234 228 236 276 333 2 30 39 24 40 46
107 106 158 132 156 275 281 283 306 2 27 69 114 140 186 206 211 214 214 211 210 211 211 209 214 225 232 235 237 239 231 224 230 233 225 228 233 234 222 220 225 243 281 333 33 40 357 27 30
129 139 92 109 143 259 294 272 248 243 235 225 202 207 226 230 229 226 217 216 218 219 219 217 217 222 230 233 234 238 234 231 230 223 229 231 234 228 220 226 225 235 247 250 188 279 287 51 319
129 124 111 118 154 163 255 271 233 215 211 208 219 223 221 225 231 230 225 225 226 226 223 226 229 230 237 237 236 241 241 234 226 222 229 228 228 223 219 218 219 224 228 218 199 222 233 219 270
195 182 148 150 213 178 199 267 279 215 203 191 210 224 223 224 228 231 229 235 241 243 241 237 236 235 239 235 232 238 241 234 231 234 234 227 225 224 221 217 218 224 224 215 207 216 217 214 225
Height
1515 1516 1518 1521 1524 1532 1530 1522 1515 1514 1514 1514 1513 1514 1516 1521 1525 1532 1530 1529 1532 1534 1536 1538 1539 1541 1542 1543 1544 1544 1545 1545 1545 1546 1546 1546 1546 1546 1545 1545 1545 1545 1545 1545 1544 1544 1544 1544 1544
1514 1516 1519 1520 1527 1535 1528 1518 1514 1511 1511 1512 1513 1515 1516 1521 1523 1526 1527 1529 1532 1534 1535 1537 1539 1540 1541 1542 1543 1544 1544 1545 1545 1545 1545 1545 1545 1545 1545 1545 1545 1544 1544 1544 1544 1544 1544 1544 1544
1514 1515 1518 1520 1525 1527 1520 1513 1511 1510 1511 1511 1513 1516 1519 1522 1524 1525 1527 1529 1532 1534 1535 1537 1539 1540 1541 1542 1543 1543 1544 1544 1545 1545 1545 1545 1545 1545 1544 1544 1544 1544 1544 1543 1543 1543 1543 1543 1543
1513 1516 1517 1521 1521 1517 1512 1509 1508 1509 1510 1511 1513 1518 1520 1524 1524 1525 1527 1530 1532 1534 1535 1537 1538 1540 1541 1541 1542 1543 1543 1544 1544 1544 1544 1544 1544 1544 1544 1543 1543 1543 1543 1543 1542 1542 1542 1542 1542
1512 1513 1518 1520 1517 1512 1508 1507 1507 1507 1509 1512 1513 1518 1522 1524 1525 1526 1528 1530 1532 1534 1535 1537 1538 1539 1540 1541 1541 1542 1543 1543 1543 1543 1543 1543 1543 1543 1543 1542 1542 1542 1542 1541 1541 1541 1541 1541 1541
1511 1512 1520 1521 1515 1510 1508 1506 1507 1508 1510 1512 1513 1517 1523 1525 1525 1527 1528 1530 1532 1534 1535 1537 1538 1539 1540 1540 1541 1541 1542 1542 1542 1542 1542 1542 1542 1542 1541 1541 1541 1540 1540 1540 1540 1539 1539 1539 1539
1510 1512 1515 1515 1514 1511 1507 1506 1507 1508 1510 1512 1513 1517 1522 1524 1526 1527 1528 1530 1532 1534 1535 1536 1537 1538 1539 1540 1540 1540 1541 1541 1541 1541 1541 1541 1541 1540 1540 1540 1539 1539 1539 1538 1538 1538 1537 1537 1537
1507 1511 1511 1513 1511 1509 1506 1506 1507 1507 1510 1513 1513 1515 1520 1523 1525 1527 1528 1530 1532 1533 1535 1536 1537 1538 1538 1539 1539 1539 1540 1540 1540 1540 1540 1540 1540 1539 1539 1538 1538 1537 1537 1537 1536 1536 1535 1535 1535
1507 1512 1512 1510 1508 1506 1504 1505 1507 1508 1509 1512 1513 1515 1518 1521 1524 1526 1528 1530 1531 1533 1534 1535 1536 1537 1537 1538 1538 1539 1539 1539 1539 1539 1539 1539 1538 1538 1537 1537 1536 1536 1535 1535 1534 1534 1533 1533 1533
1506 1512 1508 1505 1503 1503 1503 1504 1506 1508 1510 1512 1514 1516 1519 1521 1524 1526 1528 1529 1531 1532 1534 1535 1535 1536 1537 1537 1537 1538 1538 1538 1538 1538 1538 1537 1537 1536 1536 1535 1535 1534 1534 1533 1533 1532 1531 1531 1530
1505 1508 1505 1503 1502 1501 1502 1504 1505 1507 1512 1512 1512 1515 1519 1521 1524 1526 1528 1529 1531 1532 1533 1534 1535 1535 1536 1536 1536 1537 1537 1537 1537 1536 1536 1536 1536 1535 1535 1534 1533 1533 1532 1531 1530 1530 1529 1529 1528
1505 1506 1504 1503 1502 1501 1502 1504 1506 1507 1510 1512 1513 1515 1518 1521 1524 1526 1528 1529 1531 1532 1532 1533 1534 1535 1535 1535 1535 1536 1536 1536 1535 1535 1535 1534 1534 1533 1533 1532 1532 1531 1530 1529 1528 1528 1527 1526 1526
1505 1505 1504 1503 1502 1502 1502 1505 1507 1510 1511 1513 1515 1517 1519 1522 1524 1526 1528 1529 1531 1532 1532 1533 1533 1534 1534 1534 1534 1534 1534 1534 1534 1533 1533 1533 1532 1532 1531 1530 1529 1529 1528 1527 1526 1526 1525 1524 1523
1505 1505 1504 1504 1504 1504 1504 1508 1509 1513 1513 1514 1516 1518 1520 1522 1524 1526 1528 1529 1530 1531 1531 1532 1532 1533 1533 1533 1533 1533 1533 1533 1532 1531 1531 1531 1531 1530 1529 1528 1528 1527 1526 1525 1524 1523 1523 1522 1521
1505 1507 1507 1507 1506 1507 1507 1512 1513 1513 1514 1516 1518 1519 1521 1523 1525 1526 1527 1529 1530 1531 1531 1531 1532 1532 1532 1532 1532 1532 1532 1532 1531 1530 1530 1529 1529 1528 1527 1527 1526 1525 1524 1523 1522 1521 1520 1519 1519
1507 1511 1514 1510 1509 1509 1512 1518 1515 1515 1515 1517 1519 1520 1521 1523 1525 1526 1527 1529 1530 1530 1530 1530 1531 1531 1531 1531 1531 1531 1531 1530 1530 1529 1528 1528 1527 1527 1526 1525 1524 1523 1522 1521 1520 1519 1518 1517 1516
1512 1517 1516 1513 1510 1510 1514 1517 1515 1516 1516 1517 1519 1520 1522 1523 1525 1526 1527 1528 1529 1529 1530 1530 1530 1530 1529 1530 1530 1530 1529 1529 1528 1528 1527 1526 1526 1525 1524 1523 1522 1521 1521 1520 1518 1517 1516 1515 1514
1516 1516 1515 1515 1512 1512 1515 1517 1516 1516 1517 1517 1519 1520 1521 1523 1524 1525 1526 1527 1528 1529 1529 1529 1529 1528 1528 1528 1528 1528 1528 1528 1527 1526 1526 1525 1524 1524 1523 1522 1521 1520 1519 1518 1517 1515 1514 1513 1512
1510 1513 1516 1515 1513 1514 1516 1517 1516 1515 1516 1517 1518 1519 1520 1521 1523 1524 1525 1526 1527 1527 1528 1528 1528 1527 1527 1527 1527 1527 1526 1526 1526 1525 1524 1524 1523 1522 1521 1520 1519 1518 1517 1516 1515 1513 1512 1511 1510
1510 1515 1518 1516 1514 1516 1518 1518 1515 1514 1514 1514 1516 1517 1518 1520 1521 1523 1524 1524 1525 1526 1526 1527 1526 1526 1526 1526 1525 1525 1525 1524 1524 1524 1523 1522 1521 1521 1520 1519 1517 1516 1515 1514 1513 1512 1510 1509 1508
1514 1516 1517 1518 1517 1517 1520 1520 1516 1514 1513 1513 1514 1515 1516 1517 1519 1521 1522 1523 1524 1524 1525 1525 1525 1525 1524 1524 1524 1523 1523 1523 1522 1522 1521 1521 1520 1519 1518 1517 1516 1514 1513 1512 1511 1510 1509 1508 1507
1517 1515 1515 1517 1522 1527 1524 1530 1518 1514 1513 1512 1512 1513 1514 1516 1517 1519 1520 1521 1522 1523 1523 1523 1523 1523 1523 1523 1522 1521 1521 1521 1521 1520 1519 1519 1518 1517 1516 1515 1514 1513 1511 1510 1509 1508 1507 1506 1505
1516 1515 1516 1518 1523 1528 1527 1531 1524 1515 1514 1511 1511 1511 1513 1514 1516 1517 1518 1519 1521 1521 1522 1522 1521 1521 1521 1521 1520 1519 1519 1519 1518 1518 1517 1517 1516 1515 1514 1513 1512 1511 1510 1508 1507 1506 1505 1504 1503
1515 1518 1520 1525 1529 1530 1527 1531 1525 1518 1511 1509 1509 1509 1510 1512 1514 1515 1517 1518 1519 1519 1520 1520 1519 1519 1519 1519 1518 1517 1516 1516 1516 1515 1515 1514 1514 1513 1512 1511 1510 1509 1508 1507 1506 1504 1503 1502 1501
1519 1527 1536 1535 1539 1534 1528 1528 1525 1512 1508 1507 1507 1508 1509 1511 1513 1514 1515 1516 1517 1517 1518 1518 1517 1517 1517 1517 1516 1515 1514 1514 1513 1513 1512 1512 1511 1510 1510 1509 1508 1506 1505 1504 1503 1502 1501 1500 1499
1521 1525 1535 1535 1537 1536 1528 1527 1519 1510 1508 1507 1507 1508 1509 1510 1512 1513 1514 1515 1515 1516 1516 1516 1515 1515 1515 1514 1514 1513 1512 1511 1511 1510 1510 1509 1508 1508 1507 1506 1505 1504 1503 1502 1501 1500 1499 1498 1497
1521 1527 1527 1535 1535 1534 1530 1524 1515 1510 1509 1508 1508 1508 1509 1510 1511 1511 1512 1513 1513 1513 1513 1513 1513 1512 1512 1512 1511 1510 1509 1509 1508 1508 1507 1506 1506 1505 1504 1503 1502 1501 1500 1499 1498 1497 1496 1495 1494
1521 1524 1531 1533 1533 1532 1528 1524 1521 1512 1510 1509 1508 1508 1508 1509 1509 1510 1510 1511 1511 1511 1511 1511 1510 1510 1509 1509 1508 1507 1506 1505 1505 1504 1504 1503 1503 1502 1501 1500 1499 1498 1497 1496 1495 1494 1493 1492 1491
1523 1524 1527 1534 1534 1535 1532 1525 1510 1508 1507 1507 1507 1507 1507 1508 1508 1508 1509 1509 1509 1509 1508 1508 1507 1507 1506 1506 1505 1504 1503 1502 1502 1501 1500 1500 1499 1498 1497 1497 1496 1495 1494 1493 1492 1491 1490 1489 1488
1521 1521 1526 1531 1532 1535 1536 1527 1505 1505 1504 1505 1505 1506 1506 1506 1507 1507 1507 1507 1506 1506 1505 1505 1504 1504 1503 1502 1501 1501 1500 1499 1498 1497 1497 1496 1495 1495 1494 1493 1492 1491 1490 1490 1489 1488 1487 1486 1485